Location: Dammartin
(48.9032°N, 1.6195°E)
Time: 19:42:43
(UTC+00:00)

ATLAS CENTAUR R/B - Visible Passes

Search period start: 01 October 2023 00:00
Search period end: 11 October 2023 00:00
Orbit: 461 x 614 km, 64.7° (Epoch: 25 September)

Date Brightness Start Highest point End Pass type
(mag) Time Alt. Az. Time Alt. Az. Time Alt. Az.
01 Oct 3.9 04:02:07 10° N 04:03:54 13° NNE 04:05:41 10° NE visible
02 Oct 3.9 03:53:05 10° N 03:55:08 14° NNE 03:57:09 10° ENE visible
03 Oct 3.8 03:44:03 10° N 03:46:20 16° NNE 03:48:35 10° ENE visible
03 Oct 1.0 05:21:23 10° NW 05:24:59 85° NE 05:28:34 10° SE visible
04 Oct 3.7 03:35:01 10° NNW 03:37:29 17° NNE 03:39:56 10° ENE visible
04 Oct 0.9 05:12:27 10° NW 05:16:03 80° SW 05:19:38 10° SE visible
05 Oct 3.6 03:26:36 13° N 03:28:37 19° NNE 03:31:14 10° E visible
05 Oct 0.9 05:03:31 10° NW 05:07:05 67° SW 05:10:38 10° SSE visible
06 Oct 3.4 03:18:35 18° N 03:19:42 21° NE 03:22:30 10° E visible
06 Oct 1.0 04:54:34 10° NW 04:58:05 55° SW 05:01:35 10° SSE visible
07 Oct 3.2 03:10:45 23° NE 03:10:46 23° NE 03:13:42 10° E visible
07 Oct 1.2 04:46:14 14° NW 04:49:02 46° WSW 04:52:29 10° SSE visible
08 Oct 3.5 03:03:05 21° ENE 03:03:05 21° ENE 03:04:51 10° E visible
08 Oct 1.4 04:38:35 26° WNW 04:39:58 38° WSW 04:43:19 10° S visible
09 Oct 4.1 02:55:37 12° E 02:55:37 12° E 02:55:57 10° ESE visible
09 Oct 1.7 04:31:08 32° SW 04:31:08 32° SW 04:34:06 10° S visible
09 Oct 3.4 18:26:46 10° SE 18:27:07 11° SE 18:27:07 11° SE visible
09 Oct 4.0 20:02:25 10° SW 20:02:36 11° SW 20:02:36 11° SW visible
10 Oct 3.0 04:23:50 16° SSW 04:23:50 16° SSW 04:24:48 10° S visible
10 Oct 2.8 18:17:08 10° SSE 18:19:31 16° ESE 18:19:32 16° ESE visible
10 Oct 3.1 19:53:20 10° SW 19:55:01 24° SW 19:55:01 24° SW visible
